| time (UTC) | temp F | wind direction | speed MPH | gust MPH | rain 1hr in | rain 24hr in | rain mn in | humidity % | barometer mb |
| 20260505195611 | 79 | 200 | 0.0 | 0.0 | 0.00 | 0.01 | 0.01 | 32 | 1004.6 |
| 20260505195111 | 79 | 230 | 0.0 | 0.0 | 0.00 | 0.01 | 0.01 | 32 | 1004.6 |
| 20260505194611 | 79 | 200 | 0.0 | 0.0 | 0.00 | 0.01 | 0.01 | 33 | 1004.6 |
| 20260505194111 | 79 | 200 | 0.0 | 0.0 | 0.00 | 0.01 | 0.01 | 33 | 1004.7 |
| 20260505193612 | 79 | 198 | 0.0 | 0.0 | 0.00 | 0.01 | 0.01 | 34 | 1004.7 |
| 20260505193113 | 79 | 200 | 0.0 | 0.0 | 0.00 | 0.01 | 0.01 | 33 | 1004.7 |
| 20260505192613 | 79 | 186 | 0.0 | 0.0 | 0.00 | 0.01 | 0.01 | 32 | 1004.9 |
| 20260505192114 | 79 | 188 | 0.0 | 0.0 | 0.00 | 0.01 | 0.01 | 30 | 1004.9 |
| 20260505191614 | 79 | 243 | 0.0 | 0.0 | 0.00 | 0.01 | 0.01 | 33 | 1004.9 |
| 20260505190215 | 78 | 151 | 0.0 | 0.0 | 0.00 | 0.01 | 0.01 | 36 | 1005.1 |
| 20260505185616 | 79 | 161 | 0.0 | 0.0 | 0.00 | 0.01 | 0.01 | 36 | 1005.2 |
| 20260505184617 | 79 | 176 | 0.0 | 0.0 | 0.00 | 0.01 | 0.01 | 34 | 1005.2 |
| 20260505183617 | 79 | 208 | 0.0 | 0.0 | 0.00 | 0.01 | 0.01 | 32 | 1005.5 |
| 20260505183118 | 79 | 147 | 0.0 | 0.0 | 0.00 | 0.01 | 0.01 | 32 | 1005.5 |
| 20260505182618 | 79 | 179 | 0.0 | 0.0 | 0.00 | 0.01 | 0.01 | 33 | 1005.6 |
| 20260505182119 | 79 | 209 | 0.0 | 0.0 | 0.00 | 0.01 | 0.01 | 32 | 1005.6 |
| 20260505181121 | 79 | 192 | 0.0 | 0.0 | 0.00 | 0.01 | 0.01 | 34 | 1005.7 |
| 20260505180550 | 79 | 213 | 0.0 | 0.0 | 0.00 | 0.01 | 0.01 | 36 | 1005.7 |
| 20260505180153 | 79 | 178 | 0.0 | 0.0 | 0.00 | 0.01 | 0.01 | 38 | 1005.7 |
| 20260505175551 | 78 | 267 | 0.0 | 0.0 | 0.00 | 0.01 | 0.01 | 37 | 1005.9 |
| 20260505175122 | 78 | 254 | 0.0 | 0.0 | 0.00 | 0.01 | 0.01 | 36 | 1005.9 |
| 20260505174552 | 78 | 179 | 0.0 | 0.0 | 0.00 | 0.01 | 0.01 | 38 | 1005.9 |
| 20260505174122 | 78 | 206 | 0.0 | 0.0 | 0.00 | 0.01 | 0.01 | 37 | 1005.9 |
| 20260505173553 | 78 | 198 | 0.0 | 0.0 | 0.00 | 0.01 | 0.01 | 39 | 1005.9 |
| 20260505173053 | 77 | 169 | 0.0 | 0.0 | 0.00 | 0.01 | 0.01 | 39 | 1005.8 |
| 20260505172554 | 77 | 203 | 0.0 | 0.0 | 0.00 | 0.01 | 0.01 | 41 | 1006.0 |
| 20260505172054 | 77 | 210 | 0.0 | 0.0 | 0.00 | 0.01 | 0.01 | 40 | 1006.0 |
| 20260505171555 | 77 | 205 | 0.0 | 0.0 | 0.00 | 0.01 | 0.01 | 41 | 1006.0 |
| 20260505171055 | 77 | 234 | 0.0 | 0.0 | 0.00 | 0.01 | 0.01 | 43 | 1006.2 |
| 20260505170556 | 76 | 192 | 0.0 | 0.0 | 0.00 | 0.01 | 0.01 | 42 | 1006.2 |
| 20260505170156 | 77 | 188 | 0.0 | 0.0 | 0.00 | 0.01 | 0.01 | 43 | 1006.2 |
| 20260505165557 | 76 | 200 | 0.0 | 0.0 | 0.00 | 0.01 | 0.01 | 43 | 1006.6 |
| 20260505165057 | 76 | 213 | 0.0 | 0.0 | 0.00 | 0.01 | 0.01 | 43 | 1006.6 |
| 20260505164557 | 76 | 232 | 0.0 | 0.0 | 0.00 | 0.01 | 0.01 | 42 | 1006.6 |
| 20260505164058 | 76 | 192 | 0.0 | 0.0 | 0.00 | 0.01 | 0.01 | 42 | 1006.5 |
| 20260505163558 | 77 | 134 | 0.0 | 0.0 | 0.00 | 0.01 | 0.01 | 42 | 1006.5 |
| 20260505163059 | 76 | 192 | 0.0 | 0.0 | 0.00 | 0.01 | 0.01 | 43 | 1006.5 |
| 20260505162559 | 76 | 178 | 0.0 | 0.0 | 0.00 | 0.01 | 0.01 | 44 | 1006.7 |
| 20260505162100 | 76 | 175 | 0.0 | 0.0 | 0.00 | 0.01 | 0.01 | 44 | 1006.7 |
| 20260505161559 | 75 | 192 | 0.0 | 0.0 | 0.00 | 0.01 | 0.01 | 45 | 1006.7 |
| 20260505160600 | 75 | 206 | 0.0 | 0.0 | 0.00 | 0.01 | 0.01 | 43 | 1006.8 |
| 20260505153104 | 73 | 222 | 0.0 | 0.0 | 0.00 | 0.01 | 0.01 | 46 | 1007.1 |
| 20260505152604 | 73 | 185 | 0.0 | 0.0 | 0.00 | 0.01 | 0.01 | 48 | 1007.2 |
| 20260505152106 | 72 | 222 | 0.0 | 0.0 | 0.00 | 0.01 | 0.01 | 49 | 1007.2 |
| 20260505151606 | 72 | 150 | 0.0 | 0.0 | 0.00 | 0.01 | 0.01 | 48 | 1007.2 |
| 20260505151105 | 72 | 206 | 0.0 | 0.0 | 0.00 | 0.01 | 0.01 | 48 | 1007.2 |
| 20260505140612 | 68 | 164 | 0.0 | 0.0 | 0.00 | 0.01 | 0.01 | 55 | 1007.7 |
| 20260505124617 | 63 | 216 | 0.0 | 0.0 | 0.00 | 0.01 | 0.01 | 67 | 1007.5 |
| 20260505123118 | 61 | 210 | 0.0 | 0.0 | 0.00 | 0.01 | 0.01 | 70 | 1007.0 |
| 20260505122619 | 61 | 167 | 0.0 | 0.0 | 0.00 | 0.01 | 0.01 | 72 | 1007.0 |
| 20260505122119 | 61 | 199 | 0.0 | 0.0 | 0.00 | 0.01 | 0.01 | 73 | 1007.0 |
| 20260505121620 | 60 | 260 | 0.0 | 0.0 | 0.00 | 0.01 | 0.01 | 75 | 1006.9 |
| 20260505121120 | 60 | 217 | 0.0 | 0.0 | 0.00 | 0.01 | 0.01 | 76 | 1007.1 |
| 20260505120621 | 59 | 172 | 0.0 | 0.0 | 0.00 | 0.01 | 0.01 | 79 | 1007.1 |
| 20260505115552 | 57 | 224 | 0.0 | 0.0 | 0.00 | 0.01 | 0.01 | 86 | 1007.4 |
| 20260505115122 | 57 | 209 | 0.0 | 0.0 | 0.00 | 0.01 | 0.01 | 88 | 1007.5 |
| 20260505114622 | 56 | 210 | 0.0 | 0.0 | 0.00 | 0.01 | 0.01 | 90 | 1007.4 |
| 20260505114123 | 55 | 210 | 0.0 | 0.0 | 0.00 | 0.01 | 0.01 | 91 | 1007.4 |
| 20260505113553 | 55 | 210 | 0.0 | 0.0 | 0.00 | 0.01 | 0.01 | 92 | 1007.4 |
| 20260505113124 | 54 | 210 | 0.0 | 0.0 | 0.01 | 0.01 | 0.01 | 93 | 1007.4 |
| 20260505112555 | 54 | 216 | 0.0 | 0.0 | 0.01 | 0.01 | 0.01 | 94 | 1007.4 |
| 20260505112124 | 54 | 216 | 0.0 | 0.0 | 0.01 | 0.01 | 0.01 | 95 | 1007.4 |
| 20260505111055 | 53 | 216 | 0.0 | 0.0 | 0.01 | 0.01 | 0.01 | 95 | 1006.9 |
| 20260505110556 | 53 | 227 | 0.0 | 0.0 | 0.01 | 0.01 | 0.01 | 95 | 1006.9 |
| 20260505102059 | 54 | 236 | 0.0 | 0.0 | 0.00 | 0.00 | 0.00 | 82 | 1007.3 |
| 20260505101600 | 54 | 236 | 0.0 | 0.0 | 0.00 | 0.00 | 0.00 | 80 | 1007.3 |
| 20260505101100 | 54 | 237 | 0.0 | 0.0 | 0.00 | 0.00 | 0.00 | 79 | 1007.2 |
| 20260505100602 | 53 | 219 | 0.0 | 0.0 | 0.00 | 0.00 | 0.00 | 79 | 1007.2 |
| 20260505095602 | 53 | 161 | 0.0 | 0.0 | 0.00 | 0.00 | 0.00 | 79 | 1007.1 |
| 20260505095102 | 53 | 161 | 0.0 | 0.0 | 0.00 | 0.00 | 0.00 | 79 | 1007.1 |
| 20260505094104 | 53 | 161 | 0.0 | 0.0 | 0.00 | 0.00 | 0.00 | 79 | 1007.0 |
| 20260505093603 | 53 | 161 | 0.0 | 0.0 | 0.00 | 0.00 | 0.00 | 79 | 1007.0 |
| 20260505093104 | 53 | 161 | 0.0 | 0.0 | 0.00 | 0.00 | 0.00 | 79 | 1007.0 |
| 20260505092604 | 53 | 161 | 0.0 | 0.0 | 0.00 | 0.00 | 0.00 | 79 | 1006.6 |
| 20260505092105 | 53 | 226 | 0.0 | 0.0 | 0.00 | 0.00 | 0.00 | 79 | 1006.6 |
| 20260505091605 | 53 | 226 | 0.0 | 0.0 | 0.00 | 0.00 | 0.00 | 79 | 1006.6 |
| 20260505091107 | 53 | 226 | 0.0 | 0.0 | 0.00 | 0.00 | 0.00 | 79 | 1006.5 |
| 20260505090606 | 53 | 226 | 0.0 | 0.0 | 0.00 | 0.00 | 0.00 | 79 | 1006.5 |
| 20260505085606 | 52 | 226 | 0.0 | 0.0 | 0.00 | 0.00 | 0.00 | 80 | 1006.3 |
| 20260505085107 | 52 | 226 | 0.0 | 0.0 | 0.00 | 0.00 | 0.00 | 80 | 1006.3 |
| 20260505084108 | 52 | 226 | 0.0 | 0.0 | 0.00 | 0.00 | 0.00 | 78 | 1006.4 |
| 20260505083608 | 53 | 226 | 0.0 | 0.0 | 0.00 | 0.00 | 0.00 | 77 | 1006.5 |
| 20260505083110 | 53 | 226 | 0.0 | 0.0 | 0.00 | 0.00 | 0.00 | 77 | 1006.5 |
| 20260505082609 | 53 | 226 | 0.0 | 0.0 | 0.00 | 0.00 | 0.00 | 77 | 1006.5 |
| 20260505082109 | 53 | 226 | 0.0 | 0.0 | 0.00 | 0.00 | 0.00 | 77 | 1006.5 |
| 20260505081610 | 53 | 226 | 0.0 | 0.0 | 0.00 | 0.00 | 0.00 | 77 | 1006.5 |
| 20260505081110 | 53 | 226 | 0.0 | 0.0 | 0.00 | 0.00 | 0.00 | 78 | 1006.5 |
| 20260505080610 | 52 | 226 | 0.0 | 0.0 | 0.00 | 0.00 | 0.00 | 78 | 1006.4 |
| 20260505080141 | 52 | 226 | 0.0 | 0.0 | 0.00 | 0.00 | 0.00 | 78 | 1006.4 |
| 20260505075612 | 52 | 226 | 0.0 | 0.0 | 0.00 | 0.00 | 0.00 | 78 | 1006.4 |
| 20260505075112 | 52 | 226 | 0.0 | 0.0 | 0.00 | 0.00 | 0.00 | 78 | 1006.4 |
| 20260505074612 | 53 | 226 | 0.0 | 0.0 | 0.00 | 0.00 | 0.00 | 77 | 1006.5 |
| 20260505074113 | 53 | 226 | 0.0 | 0.0 | 0.00 | 0.00 | 0.00 | 76 | 1006.5 |
| 20260505073614 | 53 | 226 | 0.0 | 0.0 | 0.00 | 0.00 | 0.00 | 76 | 1006.5 |
| 20260505073114 | 53 | 226 | 0.0 | 0.0 | 0.00 | 0.00 | 0.00 | 75 | 1006.5 |
| 20260505072614 | 53 | 226 | 0.0 | 0.0 | 0.00 | 0.00 | 0.00 | 74 | 1006.4 |
| 20260505072115 | 53 | 226 | 0.0 | 0.0 | 0.00 | 0.00 | 0.00 | 73 | 1006.4 |
| 20260505071615 | 53 | 226 | 0.0 | 0.0 | 0.00 | 0.00 | 0.00 | 73 | 1006.4 |
| 20260505071143 | 54 | 0 | 0.0 | 0.0 | 0.00 | 0.00 | 0.00 | 71 | 1006.5 |
| 20260505064110 | 54 | 226 | 0.0 | 0.0 | 0.00 | 0.00 | 0.00 | 69 | 1006.5 |
| 20260505063110 | 55 | 226 | 0.0 | 0.0 | 0.00 | 0.00 | 0.00 | 68 | 1006.5 |
| 20260505062611 | 55 | 226 | 0.0 | 0.0 | 0.00 | 0.00 | 0.00 | 67 | 1006.6 |
| 20260505062111 | 55 | 226 | 0.0 | 0.0 | 0.00 | 0.00 | 0.00 | 67 | 1006.6 |
| 20260505061611 | 55 | 226 | 0.0 | 0.0 | 0.00 | 0.00 | 0.00 | 66 | 1006.6 |
| 20260505061112 | 56 | 226 | 0.0 | 0.0 | 0.00 | 0.00 | 0.00 | 66 | 1006.7 |
| 20260505060613 | 56 | 226 | 0.0 | 0.0 | 0.00 | 0.00 | 0.00 | 65 | 1006.7 |
| 20260505055114 | 56 | 226 | 0.0 | 0.0 | 0.00 | 0.00 | 0.00 | 64 | 1006.7 |
| 20260505054614 | 56 | 229 | 0.0 | 0.0 | 0.00 | 0.00 | 0.00 | 63 | 1006.7 |
| 20260505054115 | 56 | 198 | 0.0 | 0.0 | 0.00 | 0.00 | 0.00 | 63 | 1006.7 |
| 20260505053616 | 56 | 191 | 0.0 | 0.0 | 0.00 | 0.00 | 0.00 | 63 | 1006.7 |
| 20260505053116 | 56 | 202 | 0.0 | 0.0 | 0.00 | 0.00 | 0.00 | 62 | 1006.7 |
| 20260505052616 | 56 | 205 | 0.0 | 0.0 | 0.00 | 0.00 | 0.00 | 61 | 1006.8 |
| 20260505052117 | 56 | 226 | 0.0 | 0.0 | 0.00 | 0.00 | 0.00 | 61 | 1006.8 |
| 20260505051617 | 56 | 209 | 0.0 | 0.0 | 0.00 | 0.00 | 0.00 | 61 | 1006.8 |
| 20260505051117 | 56 | 209 | 0.0 | 0.0 | 0.00 | 0.00 | 0.00 | 61 | 1006.7 |
| 20260505050619 | 56 | 209 | 0.0 | 0.0 | 0.00 | 0.00 | 0.00 | 61 | 1006.7 |
| 20260505050147 | 55 | 209 | 0.0 | 0.0 | 0.00 | 0.00 | 0.00 | 61 | 1006.7 |
| 20260505041552 | 56 | 209 | 0.0 | 0.0 | 0.00 | 0.00 | 0.00 | 57 | 1006.9 |
| 20260505041052 | 56 | 209 | 0.0 | 0.0 | 0.00 | 0.00 | 0.00 | 56 | 1006.8 |
| 20260505040553 | 57 | 209 | 0.0 | 0.0 | 0.00 | 0.00 | 0.00 | 55 | 1006.8 |
| 20260505035555 | 57 | 209 | 0.0 | 0.0 | 0.00 | 0.00 | 0.00 | 55 | 1006.8 |
| 20260505035054 | 57 | 208 | 0.0 | 0.0 | 0.00 | 0.00 | 0.00 | 55 | 1006.8 |
| 20260505034622 | 57 | 209 | 0.0 | 0.0 | 0.00 | 0.00 | 0.00 | 54 | 1006.7 |
| 20260505034054 | 57 | 179 | 0.0 | 0.0 | 0.00 | 0.00 | 0.00 | 54 | 1006.8 |
| 20260505033556 | 57 | 179 | 0.0 | 0.0 | 0.00 | 0.00 | 0.00 | 54 | 1006.8 |
| 20260505033126 | 57 | 179 | 0.0 | 0.0 | 0.00 | 0.00 | 0.00 | 53 | 1006.8 |
| 20260505032626 | 57 | 179 | 0.0 | 0.0 | 0.00 | 0.00 | 0.00 | 53 | 1006.9 |
| 20260505032128 | 57 | 179 | 0.0 | 0.0 | 0.00 | 0.00 | 0.00 | 53 | 1006.9 |
| 20260505031556 | 57 | 179 | 0.0 | 0.0 | 0.00 | 0.00 | 0.00 | 53 | 1006.9 |
| 20260505030558 | 57 | 179 | 0.0 | 0.0 | 0.00 | 0.00 | 0.00 | 53 | 1006.9 |
| 20260505030158 | 57 | 179 | 0.0 | 0.0 | 0.00 | 0.00 | 0.00 | 53 | 1006.9 |
| 20260505025558 | 56 | 179 | 0.0 | 0.0 | 0.00 | 0.00 | 0.00 | 55 | 1006.9 |
| 20260505025059 | 56 | 179 | 0.0 | 0.0 | 0.00 | 0.00 | 0.00 | 56 | 1006.9 |
| 20260505024559 | 56 | 179 | 0.0 | 0.0 | 0.00 | 0.00 | 0.00 | 56 | 1006.9 |
| 20260505024100 | 56 | 179 | 0.0 | 0.0 | 0.00 | 0.00 | 0.00 | 56 | 1007.0 |
| 20260505023600 | 56 | 179 | 0.0 | 0.0 | 0.00 | 0.00 | 0.00 | 55 | 1007.0 |
| 20260505023100 | 57 | 179 | 0.0 | 0.0 | 0.00 | 0.00 | 0.00 | 55 | 1007.0 |
| 20260505022602 | 57 | 179 | 0.0 | 0.0 | 0.00 | 0.00 | 0.00 | 55 | 1007.0 |
| 20260505022101 | 57 | 179 | 0.0 | 0.0 | 0.00 | 0.00 | 0.00 | 52 | 1007.0 |
| 20260505021602 | 58 | 179 | 0.0 | 0.0 | 0.00 | 0.00 | 0.00 | 52 | 1007.0 |
| 20260505021102 | 58 | 179 | 0.0 | 0.0 | 0.00 | 0.00 | 0.00 | 52 | 1007.0 |
| 20260505020603 | 58 | 179 | 0.0 | 0.0 | 0.00 | 0.00 | 0.00 | 51 | 1007.0 |
| 20260505014604 | 59 | 179 | 0.0 | 0.0 | 0.00 | 0.00 | 0.00 | 48 | 1006.9 |
| 20260505014105 | 60 | 179 | 0.0 | 0.0 | 0.00 | 0.00 | 0.00 | 48 | 1006.8 |
| 20260505013605 | 60 | 179 | 0.0 | 0.0 | 0.00 | 0.00 | 0.00 | 47 | 1006.8 |
| 20260505013106 | 60 | 179 | 0.0 | 0.0 | 0.00 | 0.00 | 0.00 | 47 | 1006.8 |
| 20260505012607 | 60 | 179 | 0.0 | 0.0 | 0.00 | 0.00 | 0.00 | 47 | 1006.7 |
| 20260505012106 | 60 | 179 | 0.0 | 0.0 | 0.00 | 0.00 | 0.00 | 47 | 1006.7 |
| 20260505011607 | 60 | 179 | 0.0 | 0.0 | 0.00 | 0.00 | 0.00 | 46 | 1006.7 |
| 20260505011107 | 61 | 179 | 0.0 | 0.0 | 0.00 | 0.00 | 0.00 | 46 | 1006.4 |
| 20260505005608 | 62 | 179 | 0.0 | 0.0 | 0.00 | 0.00 | 0.00 | 44 | 1006.3 |
| 20260505004609 | 62 | 179 | 0.0 | 0.0 | 0.00 | 0.00 | 0.00 | 45 | 1006.4 |
| 20260505004110 | 62 | 178 | 0.0 | 0.0 | 0.00 | 0.00 | 0.00 | 44 | 1006.2 |
| 20260505003610 | 63 | 178 | 0.0 | 0.0 | 0.00 | 0.00 | 0.00 | 44 | 1006.3 |
| 20260505003111 | 63 | 176 | 0.0 | 0.0 | 0.00 | 0.00 | 0.00 | 43 | 1006.3 |
| 20260505002641 | 63 | 178 | 0.0 | 0.0 | 0.00 | 0.00 | 0.00 | 43 | 1006.2 |
| 20260505002111 | 63 | 178 | 0.0 | 0.0 | 0.00 | 0.00 | 0.00 | 43 | 1006.2 |
| 20260505001612 | 64 | 210 | 0.0 | 0.0 | 0.00 | 0.00 | 0.00 | 42 | 1006.2 |
| 20260505001112 | 64 | 206 | 0.0 | 0.0 | 0.00 | 0.00 | 0.00 | 42 | 1005.8 |
| 20260505000613 | 64 | 215 | 0.0 | 0.0 | 0.00 | 0.00 | 0.00 | 42 | 1005.8 |
| 20260504235613 | 65 | 208 | 0.0 | 0.0 | 0.00 | 0.00 | 0.00 | 41 | 1005.7 |
| 20260504235114 | 65 | 193 | 0.0 | 0.0 | 0.00 | 0.00 | 0.00 | 41 | 1005.7 |
| 20260504234615 | 65 | 215 | 0.0 | 0.0 | 0.00 | 0.00 | 0.00 | 40 | 1005.7 |
| 20260504233615 | 66 | 209 | 0.0 | 0.0 | 0.00 | 0.00 | 0.00 | 40 | 1005.5 |
| 20260504233116 | 66 | 182 | 0.0 | 0.0 | 0.00 | 0.00 | 0.00 | 39 | 1005.5 |
| 20260504232616 | 66 | 193 | 0.0 | 0.0 | 0.00 | 0.00 | 0.00 | 38 | 1005.3 |
| 20260504231617 | 67 | 223 | 0.0 | 0.0 | 0.00 | 0.00 | 0.00 | 38 | 1005.3 |
| 20260504231118 | 67 | 152 | 0.0 | 0.0 | 0.00 | 0.00 | 0.00 | 38 | 1005.2 |
| 20260504230618 | 67 | 189 | 0.0 | 0.0 | 0.00 | 0.00 | 0.00 | 38 | 1005.2 |
| 20260504225619 | 68 | 203 | 0.0 | 0.0 | 0.00 | 0.00 | 0.00 | 37 | 1005.0 |
| 20260504225119 | 68 | 186 | 0.0 | 0.0 | 0.00 | 0.00 | 0.00 | 38 | 1005.0 |
| 20260504224620 | 68 | 210 | 0.0 | 0.0 | 0.00 | 0.00 | 0.00 | 37 | 1005.0 |
| 20260504224120 | 68 | 181 | 0.0 | 0.0 | 0.00 | 0.00 | 0.00 | 36 | 1005.1 |
| 20260504222621 | 69 | 189 | 0.0 | 0.0 | 0.00 | 0.00 | 0.00 | 36 | 1005.1 |
| 20260504222122 | 69 | 179 | 0.0 | 0.0 | 0.00 | 0.00 | 0.00 | 36 | 1005.1 |
| 20260504221552 | 69 | 188 | 0.0 | 0.0 | 0.00 | 0.00 | 0.00 | 36 | 1005.1 |
| 20260504221052 | 69 | 217 | 0.0 | 0.0 | 0.00 | 0.00 | 0.00 | 35 | 1005.2 |
| 20260504220622 | 69 | 184 | 0.0 | 0.0 | 0.00 | 0.00 | 0.00 | 35 | 1005.2 |
| 20260504220153 | 69 | 200 | 0.0 | 0.0 | 0.00 | 0.00 | 0.00 | 35 | 1005.2 |
| 20260504215554 | 69 | 206 | 0.0 | 0.0 | 0.00 | 0.00 | 0.00 | 35 | 1005.2 |
| 20260504215054 | 69 | 178 | 0.0 | 0.0 | 0.00 | 0.00 | 0.00 | 35 | 1005.2 |
| 20260504214625 | 69 | 184 | 0.0 | 0.0 | 0.00 | 0.00 | 0.00 | 35 | 1005.2 |
| 20260504214055 | 69 | 202 | 0.0 | 0.0 | 0.00 | 0.00 | 0.00 | 34 | 1005.6 |
| 20260504213555 | 69 | 188 | 0.0 | 0.0 | 0.00 | 0.00 | 0.00 | 34 | 1005.6 |
| 20260504213056 | 69 | 191 | 0.0 | 0.0 | 0.00 | 0.00 | 0.00 | 35 | 1005.6 |
| 20260504212626 | 69 | 217 | 0.0 | 0.0 | 0.00 | 0.00 | 0.00 | 34 | 1005.6 |
| 20260504212056 | 70 | 202 | 0.0 | 0.0 | 0.00 | 0.00 | 0.00 | 34 | 1005.6 |
| 20260504211556 | 70 | 191 | 0.0 | 0.0 | 0.00 | 0.00 | 0.00 | 34 | 1005.6 |
| 20260504211057 | 69 | 212 | 0.0 | 0.0 | 0.00 | 0.00 | 0.00 | 34 | 1005.6 |
| 20260504210558 | 69 | 219 | 0.0 | 0.0 | 0.00 | 0.00 | 0.00 | 34 | 1005.6 |
| 20260504205559 | 69 | 202 | 0.0 | 0.0 | 0.00 | 0.00 | 0.00 | 35 | 1005.6 |
| 20260504205058 | 69 | 223 | 0.0 | 0.0 | 0.00 | 0.00 | 0.00 | 35 | 1005.6 |
| 20260504204559 | 69 | 191 | 0.0 | 0.0 | 0.00 | 0.00 | 0.00 | 34 | 1005.6 |
| 20260504203600 | 68 | 285 | 0.0 | 0.0 | 0.00 | 0.00 | 0.00 | 34 | 1005.5 |
| 20260504203100 | 67 | 234 | 0.0 | 0.0 | 0.00 | 0.00 | 0.00 | 35 | 1005.5 |
| 20260504202601 | 68 | 253 | 0.0 | 0.0 | 0.00 | 0.00 | 0.00 | 34 | 1005.5 |
| 20260504202101 | 68 | 206 | 0.0 | 0.0 | 0.00 | 0.00 | 0.00 | 35 | 1005.6 |
| 20260504201602 | 69 | 250 | 0.0 | 0.0 | 0.00 | 0.00 | 0.00 | 33 | 1005.5 |
| 20260504201102 | 69 | 265 | 0.0 | 0.0 | 0.00 | 0.00 | 0.00 | 34 | 1005.7 |
| 20260504200604 | 69 | 202 | 0.0 | 0.0 | 0.00 | 0.00 | 0.00 | 34 | 1005.7 |